WetterOnline ( https://www.wetteronline.de )

Wetter aktuell La Collancelle

Aktuelles Wetter: Avord (177m)

6-stündlich | Neueste Meldungen
Ortszeit Temperatur Wetter
Sa, 15.06. 8:00 13.4° C -
Sa, 15.06. 2:00 14.2° C bedeckt
Fr, 14.06. 20:00 17.9° C leichter Regen
Fr, 14.06. 14:00 17.7° C Regen
Fr, 14.06. 8:00 14.6° C Sprühregen
Fr, 14.06. 2:00 14.4° C bedeckt
Do, 13.06. 20:00 20.2° C bedeckt
Do, 13.06. 14:00 20.9° C -
Ortszeit Temperatur Wetter
Sa, 15.06. 9:00 14.7° C -
Sa, 15.06. 8:00 13.4° C -
Sa, 15.06. 7:00 11.2° C -
Sa, 15.06. 6:00 12.5° C Sprühregen
Sa, 15.06. 5:00 12.7° C bedeckt
Sa, 15.06. 4:00 12.7° C bewölkt
Sa, 15.06. 3:00 13.2° C -
Ortszeit Relative Feuchte Sichtweite
Sa, 15.06. 8:00 86% 19 km
Sa, 15.06. 2:00 92% 55 km
Fr, 14.06. 20:00 87% 50 km
Fr, 14.06. 14:00 91% 18 km
Fr, 14.06. 8:00 94% 18 km
Fr, 14.06. 2:00 77% 55 km
Do, 13.06. 20:00 44% 60 km
Do, 13.06. 14:00 41% 19 km
Ortszeit Relative Feuchte Sichtweite
Sa, 15.06. 9:00 76% 19 km
Sa, 15.06. 8:00 86% 19 km
Sa, 15.06. 7:00 90% 50 km
Sa, 15.06. 6:00 91% 9 km
Sa, 15.06. 5:00 88% 40 km
Sa, 15.06. 4:00 88% 45 km
Sa, 15.06. 3:00 89% 50 km
Ortszeit Niederschlagsmenge Niederschlagsart
Sa, 15.06. 8:00 2 l/m2 in 12 Std. -
Sa, 15.06. 2:00 1 l/m2 in 6 Std. -
Fr, 14.06. 20:00 5 l/m2 in 12 Std. -
Fr, 14.06. 14:00 2 l/m2 in 6 Std. -
Fr, 14.06. 8:00 2 l/m2 in 12 Std. -
Fr, 14.06. 2:00 0.2 l/m2 in 6 Std. -
Do, 13.06. 20:00 0.0 l/m2 in 12 Std. -
Do, 13.06. 14:00 0.0 l/m2 in 6 Std. -
Ortszeit Niederschlagsmenge Niederschlagsart
Sa, 15.06. 9:00 0.0 l/m2 in 1 Std. -
Sa, 15.06. 8:00 keine Meldung -
Sa, 15.06. 7:00 0.2 l/m2 in 1 Std. -
Sa, 15.06. 6:00 0.0 l/m2 in 1 Std. -
Sa, 15.06. 5:00 keine Meldung -
Sa, 15.06. 4:00 0.0 l/m2 in 1 Std. -
Sa, 15.06. 3:00 0.0 l/m2 in 1 Std. -
Ortszeit Stärke Spitze Richtung
km/h Bft. km/h Grad Sektor
Sa, 15.06. 8:00 17 3 24 240° SW
Sa, 15.06. 2:00 22 4 39 230° SW
Fr, 14.06. 20:00 22 4 41 200° S
Fr, 14.06. 14:00 22 4 35 240° SW
Fr, 14.06. 8:00 17 3 26 200° S
Fr, 14.06. 2:00 13 3 33 230° SW
Do, 13.06. 20:00 7 2 20 210° SW
Do, 13.06. 14:00 13 3 31 200° S
Ortszeit Stärke Spitze Richtung
km/h Bft. km/h Grad Sektor
Sa, 15.06. 9:00 20 4 31 240° SW
Sa, 15.06. 8:00 17 3 24 240° SW
Sa, 15.06. 7:00 11 2 39 260° W
Sa, 15.06. 6:00 19 3 44 260° W
Sa, 15.06. 5:00 20 4 35 220° SW
Sa, 15.06. 4:00 20 4 41 230° SW
Sa, 15.06. 3:00 20 4 39 240° SW
Ortszeit Untergrenze Bedeckung Gattung
total tief tief mittel hoch
Sa, 15.06. 8:00 - - - - - -
Sa, 15.06. 2:00 - 8/8 - - - -
Fr, 14.06. 20:00 - 8/8 - - - -
Fr, 14.06. 14:00 - 8/8 - - - -
Fr, 14.06. 8:00 - 8/8 - - - -
Fr, 14.06. 2:00 - 8/8 - - - -
Do, 13.06. 20:00 - 8/8 - - - -
Do, 13.06. 14:00 - - - - - -
Ortszeit Bedeckungsgrad in Achtel und Wolkenuntergrenze
Sa, 15.06. 9:00 -
Sa, 15.06. 8:00 -
Sa, 15.06. 7:00 -
Sa, 15.06. 6:00 8
Sa, 15.06. 5:00 8
Sa, 15.06. 4:00 7
Sa, 15.06. 3:00 -
Ortszeit Luftdruck NN (hPa) Tendenz (hPa in 3 Std.)
Sa, 15.06. 8:00 1012 + 1,8
Sa, 15.06. 2:00 1010 + 0,9
Fr, 14.06. 20:00 1008 - 1,2
Fr, 14.06. 14:00 1011 - 0,5
Fr, 14.06. 8:00 1011 - 0,7
Fr, 14.06. 2:00 1013 - 1,0
Do, 13.06. 20:00 1014 - 1,4
Do, 13.06. 14:00 1017 - 1,7
Ortszeit Luftdruck NN (hPa) Tendenz (hPa in 3 Std.)
Sa, 15.06. 9:00 1012 + 1,1
Sa, 15.06. 8:00 1012 + 1,8
Sa, 15.06. 7:00 1012 + 1,6
Sa, 15.06. 6:00 1011 + 1,2
Sa, 15.06. 5:00 1010 + 0,7
Sa, 15.06. 4:00 1010 + 1,1
Sa, 15.06. 3:00 1010 + 0,9
Ortszeit Schneehöhe (cm)
Sa, 15.06. 8:00 -
Sa, 15.06. 2:00 -
Fr, 14.06. 20:00 -
Fr, 14.06. 14:00 -
Fr, 14.06. 8:00 -
Fr, 14.06. 2:00 -
Do, 13.06. 20:00 -
Do, 13.06. 14:00 -
Ortszeit Schneehöhe (cm)
Sa, 15.06. 9:00 -
Sa, 15.06. 8:00 -
Sa, 15.06. 7:00 -
Sa, 15.06. 6:00 -
Sa, 15.06. 5:00 -
Sa, 15.06. 4:00 -
Sa, 15.06. 3:00 -
Link zu dieser Seite / Seite empfehlen

Das Wetter in ...